Regional Weather Roundup
Issued by NWS New Orleans/Baton Rouge, LA

Home | Current Version | Previous Version | Text Only | Print | Product List | Glossary On
Versions: 1 2 3 4 5 6 7 8 9 10 11 12 13 14 15 16 17 18 19 20 21 22 23 24 25 26 27 28 29 30 31 32 33 34 35 36 37 38 39 40 41 42 43 44 45 46 47 48 49 50
579
ASUS44 KLIX 172313
RWRLIX
NEW ORLEANS REGIONAL WEATHER ROUNDUP
NATIONAL WEATHER SERVICE NEW ORLEANS LA
500 PM CST TUE JAN 17 2017

NOTE: "FAIR" INDICATES FEW OR NO CLOUDS BELOW 12,000 FEET WITH NO
      SIGNIFICANT WEATHER AND/OR OBSTRUCTIONS TO VISIBILITY.
      SKY/WX - SKY CONDITION AND SIGNIFICANT WEATHER.
      TMP - AIR TEMPERATURE.     DP    - DEWPOINT TEMPERATURE.
      RH  - RELATIVE HUMIDITY.   PRES  - PRESSURE.
      HI  - HEAT INDEX.          WCI   - WIND CHILL INDEX.

*  THESE STATIONS ARE NOT NWS OR FAA STATIONS AND ARE NOT UNDER
   NWS QUALITY CONTROL.

LAZ038-040-048-061>063-065>067-069-180000-
SOUTHEAST LOUISIANA

CITY           SKY/WX    TMP DP  RH WIND       PRES   REMARKS
N.O. AUDUBON   NOT AVBL
N.O. INTL ARPT MOCLDY    74  65  73 S10       30.11S
N.O. LAKEFRONT PTCLDY    73  63  70 S9        30.12S
N.O. DOWNTOWN*   N/A     76  65  68 S8        30.12F
RESERVE*       MOCLDY    77  65  68 S8        30.11R
SLIDELL        CLOUDY    74  65  73 S6        30.12S
BATON ROUGE    CLOUDY    77  63  61 S12       30.09R
BOOTHVILLE     PTCLDY    71  69  93 S3        30.14S
BELLE CHASSE   MOCLDY    74  67  78 S9        30.11F
BOGALUSA*        N/A     76  61  57 SW8       30.13S
GALLIANO*      CLEAR     74  65  75 S7        30.12S
NEW ROADS*       N/A     75  64  67 SW6       30.10R
GONZALES*      MOCLDY    76  64  67 SW8       30.10R
HAMMOND*       CLOUDY    73  61  64 SE8       30.10R
HOUMA*         PTCLDY    73  68  83 S8        30.12R
PORT FOURCHON* CLEAR     72  68  88 E7        30.12S

$$

MSZ070-080>082-180000-
SOUTHERN MISSISSIPPI

CITY           SKY/WX    TMP DP  RH WIND       PRES   REMARKS
MCCOMB         PTCLDY    75  59  57 S6        30.10S
GULFPORT       PTCLDY    71  68  90 S7        30.13F
BILOXI         PTCLDY    69  69 100 SE7       30.13F
PASCAGOULA     MOCLDY    71  67  87 S3        30.15S
STENNIS ARPT*  PTCLDY    72  63  73 SE9       30.13S

$$

COASTAL OBSERVATIONS
LAKE AND NEARSHORE STATIONS

STATION/POSITION TIME  TEMP    WIND        PRES    WAVE
                       AIR SEA DIR/SP/G            HT/PER
                 (UTC) (F)     (DEG/KT/KT) (MB)    (FT/S)
PASCAGOULA       2248   70     140/  6/  9 1020.8
WAVELAND YACHT   2248   67 61  140/  6/  7 1020.4
GRAND ISLE       2248   70 67  110/  3/  5 1020.3
SOUTHWEST PASS   2248          120/  7/  7   N/A
NEW CANAL        2248   75 58  200/  9/ 12 1019.0
SHELL BEACH      2248   73 66  180/  9/ 11 1020.0

OFFSHORE STATIONS

STATION/POSITION TIME  TEMP    WIND        PRES    WAVE
                       AIR SEA DIR/SP/G            HT/PER
                 (UTC) (F)     (DEG/KT/KT) (MB)    (FT/S)

$$





USA.gov is the U.S. government's official web portal to all federal, state and local government web resources and services.